[Date Prev][Date Next][Thread Prev][Thread Next] - [Date Index][Thread Index][Author Index]
2 Line ISS Keps 3-4
- Subject: [sarex] 2 Line ISS Keps 3-4
- From: "Dave Larsen PhD" <doc@xxxxxxxxxxx>
- Date: Mon, 4 Mar 2002 03:19:48 -0800
ISS
1 25544U 98067A 02063.15017361 .00060999 00000-0 68775-3 0 1424
2 25544 51.6376 220.6812 0010248 136.7783 207.6182 15.61871631187642
----
Via the sarex mailing list at AMSAT.ORG courtesy of AMSAT-NA.
To unsubscribe, send "unsubscribe sarex" to Majordomo@amsat.org
AMSAT Home